sat.trackr.live / text

‹ back to catalog

ONEWEB-0240

NORAD 48785 · 2021-045U

PAYLOAD ACTIVE UNKNOWN

§ Identity

Operator
Country
UK
Launch date
2021-05-28
Launch site
VOSTO
Launch vehicle
Mass (kg)
RCS (m²)

Purposes: comms

External: N2YO · Heavens-Above · Gunter

§ Orbital elements

Epoch: 2026-09-19T17:19:59.606688Z

Period
109.46 min
Inclination
87.8999°
Eccentricity
0.0001803
Mean motion
13.15549714 rev/d
Perigee alt
1,200.4 km
Apogee alt
1,203.1 km
Semi-major
7,579.9 km
B*
7.6892e-5
RAAN
240.3418°
Arg perigee
74.8515°
Mean anomaly
285.2815°
Rev number
25,683

§ Raw data

ONEWEB-02401 48785U 21045U   26262.72221767  .00000042  00000+0  76892-4 0  99972 48785  87.8999 240.3418 0001803  74.8515 285.2815 13.15549714256833

JSON: /api/v1/satellites/48785 · /tle

For live sub-satellite position, see the globe view (requires WebGL).

§ Visibility from observer

Set your observer location to see the next 7 days of passes ≥ 10°. The values pass through the URL so the page stays shareable.

No JS? Fill the form by hand. The geolocation button needs JavaScript.